Location: Bailey Volunteer Fire Department
(33.4359°N, 96.1680°W)
Time: 15:55:29
(UTC+00:00)

ATLAS 3B R/B - Pass Details

Date: 13 December 2025
Orbit: 936 x 1258 km, 63.8° (Epoch: 14 January)

Event Time Altitude Azimuth Distance (km) Brightness Sun altitude
Rises 12:41:04 0° 337° (NNW) 4,205 5.4 -8.2°
Reaches altitude 10° 12:44:17 10° 347° (NNW) 3,217 4.9 -7.6°
Maximum altitude 12:51:10 33° 49° (NE) 1,902 4.3 -6.3°
Drops below altitude 10° 12:57:40 10° 111° (ESE) 3,047 7.0 -5.1°
Sets 13:00:36 0° 121° (ESE) 3,956 8.4 -4.5°
